This demonstration page uses our WeatherBlox Daily Observations layout. Learn more.

Left ArrowRight Arrow

41.55636, -103.73856

Hourly Observations for October 27, 2015

Temp ( °F °C ) Dew Point ( °F °C ) Humidity (%) Winds ( mph kmh ) Pressure ( in mb ) Visibility ( mi km ) Precip ( " mm )
12:53 am 00:53 Clear 39 3.9 36 2.2 89 89 E 7 11 29.89 1012 10 16.0934 0 0
1:53 am 01:53 Clear 37 2.8 35 1.7 93 93 ESE 7 11 29.88 1012 10 16.0934 0 0
2:53 am 02:53 Clear 36 2.2 34 1.1 93 93 Calm 29.87 1012 10 16.0934 0 0
3:53 am 03:53 Clear 33 0.6 31 -0.6 92 92 N 6 9 29.87 1012 10 16.0934 0 0
4:53 am 04:53 Clear 33 0.6 31 -0.6 92 92 NW 3 6 29.88 1012 10 16.0934 0 0
5:53 am 05:53 Mostly Clear 36 2.2 34 1.1 93 93 NNE 6 9 29.87 1011 10 16.0934 0 0
6:53 am 06:53 Clear 37 2.8 36 2.2 96 96 WNW 6 9 29.85 1011 10 16.0934 0 0
7:53 am 07:53 Sunny 36 2.2 35 1.7 97 97 NW 6 9 29.88 1012 9 14.48406 0 0
8:53 am 08:53 Partly Cloudy 46 7.8 39 3.9 77 77 NNW 5 7 29.85 1011 10 16.0934 0 0
9:53 am 09:53 Cloudy 48 8.9 40 4.4 74 74 WNW 5 7 29.85 1011 10 16.0934 0 0
10:53 am 10:53 Cloudy 53 11.7 39 3.9 59 59 W 7 11 29.83 1010 10 16.0934 0 0
11:53 am 11:53 Sunny 55 12.8 41 5 59 59 N 3 6 29.83 1010 10 16.0934 0 0
12:53 pm 12:53 Sunny 62 16.7 26 -3.3 25 25 WNW 21 33 29.77 1008 10 16.0934 0 0
1:53 pm 13:53 Mostly Sunny 57 13.9 35 1.7 44 44 NW 20 31 29.8 1009 10 16.0934 0 0
2:00 pm 14:00 Partly Cloudy 60 15.6 35 1.7 39 39 NW 22 35 29.71 1006 10 16.0934 0 0
2:53 pm 14:53 Cloudy 59 15 33 0.6 38 38 NW 18 30 29.8 1009 10 16.0934 0 0.0254
3:32 pm 15:32 Cloudy with Nearby Thunderstorms 52 11 37 3 58 58 NW 23 37 29.83 1010 9 14.48406 0 0
3:45 pm 15:45 Cloudy with Light Thunderstorms 50 10 41 5 71 71 NNW 15 24 29.83 1010 9 14.48406 0 0
3:53 pm 15:53 Cloudy with Thunderstorms 50 10 41 5 71 71 NNW 17 28 29.88 1012 10 16.0934 0 0.0254
4:00 pm 16:00 Cloudy with Nearby Thunderstorms 48 9 39 4 71 71 N 15 24 29.85 1011 10 16.0934 0 0
4:24 pm 16:24 Cloudy with Light Rain 46 8 39 4 76 76 NW 14 22 29.91 1013 10 16.0934 0 0
4:53 pm 16:53 Cloudy with Light Rain 46 7.8 42 5.6 86 86 NW 12 19 29.94 1014 7 11.26538 0.04 1.016
5:01 pm 17:01 Cloudy with Light Rain 46 7.8 42 5.6 86 86 NW 13 20 29.91 1013 10 16.0934 0 0.0254
5:13 pm 17:13 Cloudy with Light Rain 46 7.8 41 5 83 83 NW 14 22 29.91 1013 10 16.0934 0 0.0254
5:53 pm 17:53 Cloudy with Light Rain 44 6.7 41 5 89 89 WNW 16 26 29.97 1015 7 11.26538 0.03 0.762
6:10 pm 18:10 Cloudy with Light Rain 43 6 39 4 87 87 NW 20 31 29.97 1015 10 16.0934 0 0
6:32 pm 18:32 Cloudy 43 6.1 40 4.4 89 89 NW 16 26 29.97 1015 10 16.0934 0.02 0.508
6:53 pm 18:53 Mostly Cloudy 42 5.6 40 4.4 92 92 NW 15 24 30 1016 10 16.0934 0.02 0.508
7:35 pm 19:35 Cloudy 45 7.2 41 5 86 86 NNW 16 26 30 1016 10 16.0934 0 0
7:46 pm 19:46 Cloudy 45 7.2 40 4.4 83 83 NNW 16 26 30 1016 10 16.0934 0 0
7:53 pm 19:53 Cloudy 45 7.2 40 4.4 83 83 NNW 15 24 30.02 1017 10 16.0934 0 0
8:53 pm 20:53 Mostly Clear 40 4.4 38 3.3 93 93 WNW 8 13 30.04 1017 10 16.0934 0 0
9:08 pm 21:08 Mostly Cloudy 41 5 37 3 87 87 WNW 8 13 30.06 1018 10 16.0934 0 0
9:28 pm 21:28 Mostly Cloudy 43 6 39 4 87 87 WNW 9 15 30.09 1019 10 16.0934 0 0
9:53 pm 21:53 Partly Cloudy 43 6.1 38 3.3 82 82 NW 13 20 30.04 1017 10 16.0934 0 0
10:50 pm 22:50 Cloudy 43 6 39 4 87 87 WNW 12 19 30.09 1019 10 16.0934 0 0
10:53 pm 22:53 Cloudy 43 6.1 39 3.9 86 86 WNW 13 20 30.04 1017 10 16.0934 0 0
11:48 pm 23:48 Cloudy 43 6 37 3 81 81 WNW 15 24 30.09 1019 10 16.0934 0 0
11:53 pm 23:53 Cloudy 43 6.1 37 2.8 80 80 NW 13 20 30.03 1017 10 16.0934 0 0

Powered by AerisWeather